Regional Weather Roundup
Issued by NWS Wakefield, VA

Home | Current Version | Previous Version | Text Only | Print | Product List | Glossary Off
Versions: 1 2 3 4 5 6 7 8 9 10 11 12 13 14 15 16 17 18 19 20 21 22 23 24 25 26 27

000
ASUS41 KAKQ 272015
RWRAKQ

REGIONAL WEATHER ROUNDUP
NATIONAL WEATHER SERVICE WAKEFIELD VA
400 PM EDT MON MAR 27 2017

Note: "fair" indicates few or no clouds below 12,000 feet with no
significant weather and/or obstructions to visibility. * = Denotes
station may not report precipitation (e.g., rain,snow,etc.),
thunder or fog.

VAZ042-051-052>054-056-272100-
NORTHERN VIRGINIA

CITY           SKY/WX    TMP DP  RH WIND       PRES   REMARKS
WASH NATIONAL  PTSUNNY   73  58  59 NE6       29.96F
DULLES         MOSUNNY   74  57  55 N6        29.95F
FORT BELVOIR   MOSUNNY   77  55  47 VRB7      29.94F
QUANTICO       PTSUNNY   67  55  65 SW9       29.95F
FREDERICKSBRG* SUNNY     78  57  47 SW12      29.94F
STAFFORD*      SUNNY     77  55  47 SW9       29.98F
WARRENTON      PTSUNNY   78  51  39 S10       29.93F
CULPEPER*      SUNNY     78  57  47 S9G16     29.94F
MANASSAS*        N/A    N/A N/A N/A SW3       29.95F
LEESBURG*      MOSUNNY   72  61  68 CALM      29.97F
WINCHESTER     CLOUDY    66  55  68 NE5       29.95F
FRONT ROYAL*   MOCLDY    70  55  60 E5        29.93F
LURAY*         MOCLDY    75  54  46 SW8       29.93F
$$

VAZ048-049-060>072-079>083-272100-
CENTRAL AND SOUTH CENTRAL VIRGINIA

CITY           SKY/WX    TMP DP  RH WIND       PRES   REMARKS
RICHMOND       CLOUDY    76  57  51 SW9G20    29.98F
CHESTERFIELD*  MOCLDY    75  48  38 SW9       30.00F
PETERSBURG*    MOSUNNY   77  55  46 S8        29.99F
HANOVER        PTSUNNY   76  56  49 S12       29.99F
TAPPAHANNOCK*  PTSUNNY   77  49  36 S10G17    29.98F
QUINTON*       MOCLDY    76  58  52 S9        29.97F
CHARLOTTSVILLE MOSUNNY   78  58  49 S16G22    29.94F
GORDONSVILLE*  CLEAR     77  58  51 S10G17    29.94F
ORANGE*        SUNNY     77  55  47 S6        29.96F
LOUISA*        MOSUNNY   81  61  50 S8        29.95F
BUMPASS*       FAIR      77  57  49 S12G18    29.96F
FARMVILLE*     PTSUNNY   78  58  51 S10       29.96F
CREWE*         FAIR      77  58  53 SW5G16    29.98F
FORT PICKETT*  FAIR      77  49  36 SW10      29.99F
CHASE CITY*    MOCLDY    75  55  49 S6        29.99F
CLARKSVILLE*   FAIR      77  59  53 SW12      29.99F
SOUTH HILL*    CLOUDY    74  60  60 SW9       30.06F
LAWRENCEVILLE* FAIR      76  58  52 S7G21     30.00F
EMPORIA*       PTSUNNY   73  55  53 S9        30.02F
$$

VAZ088>098-272100-
SOUTHEAST VIRGINIA

CITY           SKY/WX    TMP DP  RH WIND       PRES   REMARKS
NORFOLK        MOSUNNY   77  55  46 SW12G22   30.00F
VIRGINIA BEACH CLOUDY    76  54  46 SW10      30.00F
NORFOLK NAVAL  CLOUDY    77  54  44 SW12      30.02F
WEST POINT*    MOSUNNY   76  54  45 S9        30.00F
SALUDA*        MOCLDY    75  58  55 S6        29.99F
NEWPORT NEWS   MOSUNNY   76  57  51 SW15      30.01F
LANGLEY AFB    MOSUNNY   75  58  54 S13       30.00F
FORT EUSTIS    MOSUNNY   76  58  52 SW8       29.98F
WILLIAMSBURG*  MOSUNNY   79  57  47 S8        30.00F
HR EXEC AP*    FAIR      79  57  47 SW13      29.99F
FRANKLIN*      PTSUNNY   74  55  50 SW8G18    30.02F
US460-WAKEFLD  MOSUNNY   75  57  53 S9G16     30.00F
$$

VAZ020-022-025-037-045-272100-
WEST CENTRAL AND SOUTHWEST VIRGINIA

CITY           SKY/WX    TMP DP  RH WIND       PRES   REMARKS
STAUNTON*      CLOUDY    74  50  42 W3        29.96F
WAYNESBORO*    PTCLDY    76  51  41 SW7       29.96F
HOT SPRINGS VA CLOUDY    63  39  42 SW9G17    30.05F
LYNCHBURG      MOSUNNY   75  57  53 S14       29.98F
DANVILLE       SUNNY     74  58  57 VRB3      29.98F
SOUTH BOSTON*  FAIR      77  56  47 S10G17    29.99F
MARTINSVILLE   CLOUDY    74  56  51 SW3       30.00F
ROANOKE        PTSUNNY   77  57  50 SE12      29.96F
BLACKSBURG     CLOUDY    74  46  37 W6        30.02F
DUBLIN*        CLOUDY    75  48  38 W9        30.00F
MARION*        PTSUNNY   73  46  38 W13G20    30.03F
HILLSVILLE*    PTSUNNY   65  57  73 S7        30.03S
RICHLANDS*     CLOUDY    69  44  41 SW6G21    30.01F
WISE*          CLOUDY    70  46  43 SW10      30.02F
ABINGDON*      CLOUDY    73  49  42 W10G16    30.00F
$$

MDZ021>025-VAZ099-100-272100-
SOUTHERN MARYLAND AND THE DELMARVA PENINSULA

CITY           SKY/WX    TMP DP  RH WIND       PRES   REMARKS
PATUXENT RIVER PTSUNNY   75  60  59 S14       29.96F
BAY BRIDGE APT SUNNY     64  54  68 N5        29.99F HAZE
LEONARDTOWN    SUNNY     73  55  53 S6        29.98F
DOVER          PTSUNNY   71  64  77 E6        29.97F
GEORGETOWN     MOSUNNY   75  56  51 W14G21    29.99F
EASTON         MOSUNNY   73  57  56 SW9       30.02F
CAMBRIDGE      SUNNY     73  57  56 S10       29.98F
SALISBURY      MOSUNNY   73  57  57 SW18G24   29.99F
OCEAN CITY     CLOUDY    63  52  67 SW10G21   30.01F
WALLOPS ISLAND MOSUNNY   64  53  67 S17       30.02F
ACCOMACK*      CLOUDY    73  57  58 S12       30.01F
$$

NCZ012>017-030>032-272100-
NORTH CENTRAL AND EASTERN NORTH CAROLINA

CITY           SKY/WX    TMP DP  RH WIND       PRES   REMARKS
ROANOKE RAPIDS FAIR      75  59  57 SW13      30.01F
RALEIGH        PTSUNNY   78  58  49 SW12      30.01F
ELIZABETH CITY CLOUDY    77  55  46 S9G18     30.04F
AHOSKIE*         N/A     74  56  52 SW6       30.04S
EDENTON*       MOSUNNY   78  56  46 SW8       30.04F
CURRITUCK*     CLOUDY    77  53  43 SW14      30.04F
KILL DEVIL HLS NOT AVBL
MANTEO         PTSUNNY   68  55  63 S15G23    30.05F
CAPE HATTERAS  SUNNY     75  58  55 SW7       30.08F
TARBORO*       NOT AVBL
GOLDSBORO      PTSUNNY   78  56  45 SW8G17    30.02F
WASHINGTON     CLOUDY    76  55  47 SW12      30.04F
GREENVILLE     PTSUNNY   79  55  44 S9G18     30.04F
NEW BERN       MOSUNNY   79  52  38 S9G17     30.06F
WILMINGTON     CLOUDY    76  55  48 S10G18    30.06F
$$

VAZ048-272100-
ELSEWHERE

CITY           SKY/WX    TMP DP  RH WIND       PRES   REMARKS
HARRISBURG PA  CLOUDY    53  49  86 CALM      29.98F
BALTIMORE      PTSUNNY   69  56  62 SE5       29.97F
ANNAPOLIS      SUNNY     62  53  72 E6        29.98F
ANDREWS AFB    SUNNY     73  57  56 CALM      29.95F
PHILADELPHIA   CLOUDY    57  51  80 SW7       30.01F
HENDERSON NC   MOSUNNY   72  56  55 SW8       30.00F
GREENSBORO     CLOUDY    75  60  59 S14       29.99F
ROCKY MOUNT    MOSUNNY   78  57  48 SW17G23   30.02F
$$

VAZ100-272100-
MARINE

STATION/POSITION TIME  TEMP    WIND        PRES    WAVE   SWELL
                       AIR SEA DIR/SP/G            HT/PER HT/PER
                 (UTC) (F)     (DEG/KT/KT) (MB)    (FT/S) (FT/S)
CAPE MAY NJ      1948   66 45  230/  4/  5 1015.2F
LEWES DE         1948   73 43  250/ 13/ 20 1015.2F
OCEAN-CITY-INLET 1948   51 48  220/ 11/ 12 1016.5F
WACHAPREAGUE VA  1948   63 58  190/  9/ 10 1016.2F
THOMAS POINT MD  2000   51 45   30/ 12/ 13   N/A
GOOSES REEF MD   2000   55 47  160/ 10/ 12 1015.5    1/ 2
COVE POINT MD    1948   52     170/ 12/ 17 1015.5F
SOLOMONS ISLAND  1948   70 48  220/ 13/ 16   N/A
BISHOPS HEAD MD  1948   55 53  140/ 11/ 12 1015.8F
PINEY POINT MD   1948          230/  6/ 10   N/A
POTOMAC MD       2000   56 49  120/  4/  4 1014.2    1/ 2
CAMBRIDGE MD     1948   73 46  220/  5/ 15 1014.4F
LEWISETTA VA     1948   72 52  230/ 11/ 14 1014.7F
RAPPAHANNOCK LGT 1948          180/ 16/ 16 1016.6F
STINGRAY PT      1950   63     240/ 10/ 14 1016.8F
YORK RVR RNG VA  1948   67     230/ 16/ 19 1015.1F
YORKTOWN VA      1948   73 51  220/ 11/ 17 1015.5F
JAMESTOWN VA     2000   71 56  200/  8/ 10   N/A     0
DOMINION TERM VA 1948   63     220/  8/ 11 1016.4F
KIPTOPEKE VA     1948      49  170/  7/  9   N/A
CHES BAY BRIDGE  1948   72 51  230/ 10/ 12 1016.2F
CAPE HENRY VA    1948   75     230/  8/ 11   N/A
WILLOUBY STN VA  1948   71     250/ 10/ 11 1017.1F
S CRANEY ISL VA  1948   73     220/ 12/ 15 1016.2F
CAPE HENRY BUOY  1942      50                N/A     3/ 7   2/11
CAPE CHARLES BUO 1951      49                N/A     3/ 8
OFFSHORE WE BUOY 1951      51                N/A     4/ 8   2/18
64NM E OF VA BCH 1950   55 51  170/  6/  8 1018.3F   3/ 8   3/ 8
DUCK PIER NC     1948   62 49  140/  8/  9 1017.1F
44100 DUCK FRF   1905      52                N/A     4/ 7   2/11
44056 DUCK FRF   1930      56                N/A     3/ 8   2/11
OREGON INLET NC  1948          170/ 12/ 14   N/A
HATTERAS NC      1948   71 60  200/  5/  9 1018.6F
DIAMOND SHLS NC  1950   71 76  240/  6/ 10 1019.1F   4/ 9   3/ 9
CAPE LOOKOUT NC  2000   70     180/  7/  8 1018.5F
$$




USA.gov is the U.S. government's official web portal to all federal, state and local government web resources and services.